Du Bois, PA

11:19 AM EST on January 18, 2018 (GMT -0500)
Du Bois-Jefferson County

Weather History for KDUJ - November, 2010

Change the Weather History Date:

Thursday, November 11, 2010

  Actual Average Record
Temperature  
Mean Temperature 48 °F 41 °F  
Max Temperature 63 °F 49 °F 68 °F (2012)
Min Temperature 32 °F 33 °F 9 °F (2017)
Degree Days  
Heating Degree Days 18 24  
Month to date heating degree days 246  
Since 1 July heating degree days 989  
Cooling Degree Days 0 0  
Month to date cooling degree days 0  
Year to date cooling degree days 362  
Moisture  
Dew Point 23 °F    
Average Humidity 48    
Maximum Humidity 85    
Minimum Humidity 18    
Precipitation  
Precipitation 0.00 in 0.11 in 0.79 in (2006)
Month to date precipitation 1.29  
Year to date precipitation 37.68  
Sea Level Pressure  
Sea Level Pressure 30.39 in    
Wind  
Wind Speed 3 mph (East)    
Max Wind Speed 7 mph    
Max Gust Speed -    
Visibility 10 miles    
Events      
T = Trace of Precipitation, MM = Missing Value Source: NWS Daily Summary

Daily Weather History Graph

Daily Weather History Graph

Search for Another Location

Airport or City:

Trip Planner

Search our weather history database for the weather conditions in past years. The results will help you decide how hot, cold, wet, or windy it might be!

Date:

Astronomy

Nov. 11, 2010 Rise Set
Actual Time 6:58 AM EST 5:00 PM EST
Civil Twilight 6:29 AM EST 5:29 PM EST
Nautical Twilight 5:56 AM EST 6:02 PM EST
Astronomical Twilight 5:23 AM EST 6:34 PM EST
Moon 11:57 AM EST (11/11) 10:03 PM EST (11/11)
Length of Visible Light 11h 00m
Length of Day
10h 01m
Waxing Crescent, 31% of the Moon is Illuminated
Nov 11
Waxing Crescent
Nov 13
First Quarter
Nov 21
Full
Nov 28
Last Quarter
Dec 5
New

Hourly Weather History & Observations

Time (EST) Temp. Windchill Dew Point Humidity Pressure Visibility Wind Dir Wind Speed Gust Speed Precip Events Conditions
12:56 AM 36.0 °F 31.1 °F 30.0 °F 79% 30.30 in 10.0 mi East 5.8 mph - N/A   Clear
1:56 AM 36.0 °F - 30.0 °F 79% 30.31 in 10.0 mi Calm Calm - N/A   Clear
2:56 AM 35.1 °F - 30.0 °F 82% 30.32 in 10.0 mi Calm Calm - N/A   Clear
3:56 AM 35.1 °F 32.2 °F 30.0 °F 82% 30.33 in 10.0 mi ENE 3.5 mph - N/A   Clear
4:56 AM 35.1 °F 31.0 °F 28.9 °F 78% 30.35 in 10.0 mi ENE 4.6 mph - N/A   Clear
5:56 AM 34.0 °F 29.8 °F 28.9 °F 82% 30.36 in 10.0 mi ENE 4.6 mph - N/A   Clear
6:56 AM 32.0 °F 25.6 °F 28.0 °F 85% 30.37 in 10.0 mi ENE 6.9 mph - N/A   Clear
7:56 AM 34.0 °F 28.8 °F 28.9 °F 82% 30.39 in 10.0 mi ENE 5.8 mph - N/A   Clear
8:56 AM 39.0 °F 34.8 °F 30.9 °F 73% 30.40 in 10.0 mi East 5.8 mph - N/A   Clear
9:56 AM 48.0 °F - 30.9 °F 52% 30.41 in 10.0 mi Calm Calm - N/A   Clear
10:56 AM 52.0 °F - 24.1 °F 34% 30.41 in 10.0 mi ESE 5.8 mph - N/A   Clear
11:56 AM 57.0 °F - 21.0 °F 25% 30.40 in 10.0 mi ESE 3.5 mph - N/A   Clear
12:56 PM 61.0 °F - 19.9 °F 21% 30.38 in 10.0 mi NE 3.5 mph - N/A   Clear
1:56 PM 62.1 °F - 19.0 °F 19% 30.38 in 10.0 mi Calm Calm - N/A   Clear
3:56 PM 63.0 °F - 18.0 °F 18% 30.39 in 10.0 mi Calm Calm - N/A   Clear
4:56 PM 59.0 °F - 17.1 °F 20% 30.40 in 10.0 mi Calm Calm - N/A   Clear
5:56 PM 55.9 °F - 12.9 °F 18% 30.42 in 10.0 mi SE 3.5 mph - N/A   Clear
6:56 PM 53.1 °F - 10.9 °F 19% 30.44 in 10.0 mi Calm Calm - N/A   Clear
7:56 PM 51.1 °F - 12.9 °F 22% 30.44 in 10.0 mi Calm Calm - N/A   Clear
8:56 PM 48.9 °F - 16.0 °F 27% 30.44 in 10.0 mi ESE 4.6 mph - N/A   Clear
9:56 PM 46.0 °F 43.1 °F 16.0 °F 30% 30.44 in 10.0 mi ESE 5.8 mph - N/A   Clear
10:56 PM 44.1 °F 40.1 °F 19.0 °F 37% 30.43 in 10.0 mi East 6.9 mph - N/A   Clear
11:56 PM 41.0 °F 37.1 °F 19.0 °F 41% 30.43 in 10.0 mi East 5.8 mph - N/A   Clear